GW4598 Weather Reports


time (UTC)temp
C
wind
direction
speed
KPH
gust
KPH
rain 1hr
cm
rain 24hr
cm
rain mn
cm
humidity
%
barometer
mb
20260507040805 10 193 3.2 3.2 0.00 0.00 0.00 97 1006.8
20260507040301 10 60 1.6 3.2 0.00 0.00 0.00 98 1006.8
20260507035757 10 113 1.6 1.6 0.00 0.51 0.51 98 1007.0
20260507035252 10 77 0.0 1.6 0.00 0.51 0.51 98 1007.0
20260507034750 10 51 1.6 1.6 0.00 0.51 0.51 98 1006.9
20260507034247 10 102 0.0 1.6 0.00 0.51 0.51 98 1006.9
20260507033746 10 148 1.6 1.6 0.00 0.51 0.51 97 1006.9
20260507033243 10 92 3.2 3.2 0.00 0.51 0.51 97 1007.1
20260507032740 11 220 9.7 12.9 0.00 0.51 0.51 96 1006.9
20260507032236 11 244 9.7 12.9 0.00 0.51 0.51 95 1006.9
20260507031732 11 219 4.8 4.8 0.00 0.51 0.51 95 1006.8
20260507031229 11 245 6.4 12.9 0.00 0.51 0.51 97 1006.8
20260507030726 11 263 11.3 14.5 0.00 0.51 0.51 98 1007.1
20260507030224 11 94 3.2 3.2 0.00 0.51 0.51 99 1006.7
20260507025721 12 102 0.0 0.0 0.00 0.51 0.51 99 1006.7
20260507025218 12 116 0.0 0.0 0.00 0.51 0.51 99 1006.6
20260507024716 12 83 0.0 0.0 0.00 0.51 0.51 99 1006.5
20260507024213 12 158 1.6 4.8 0.00 0.51 0.51 99 1006.5
20260507023708 12 67 1.6 1.6 0.18 0.51 0.51 99 1006.4
20260507023206 12 89 0.0 1.6 0.18 0.51 0.51 99 1006.5
20260507022703 13 91 0.0 0.0 0.00 0.48 0.48 99 1006.6
20260507022158 13 28 4.8 4.8 0.00 0.48 0.48 99 1006.5
20260507021655 13 125 3.2 3.2 0.00 0.48 0.48 99 1006.3
20260507021150 13 245 4.8 8.0 0.00 0.48 0.48 99 1006.4
20260507020649 13 222 8.0 9.7 0.00 0.48 0.48 99 1006.3
20260507020144 13 216 9.7 11.3 0.00 0.48 0.48 99 1006.2
20260507015643 13 237 8.0 9.7 0.00 0.48 0.48 99 1006.3
20260507015140 13 238 8.0 9.7 0.00 0.48 0.48 99 1006.4
20260507014636 13 215 8.0 9.7 0.00 0.48 0.48 99 1006.3
20260507014132 13 237 9.7 11.3 0.00 0.48 0.48 99 1006.5
20260507013630 13 234 9.7 11.3 0.00 0.48 0.48 99 1006.4
20260507013126 13 218 8.0 11.3 0.00 0.48 0.48 99 1006.2
20260507012624 13 222 9.7 11.3 0.00 0.48 0.48 99 1006.4
20260507012119 13 229 11.3 12.9 0.00 0.48 0.48 99 1006.4
20260507011618 13 231 11.3 12.9 0.00 0.48 0.48 99 1006.4
20260507011113 13 228 8.0 12.9 0.00 0.48 0.48 99 1006.4
20260507010609 13 216 8.0 9.7 0.00 0.48 0.48 99 1006.3
20260507010104 13 209 4.8 4.8 0.00 0.48 0.48 99 1006.5
20260507005602 13 194 4.8 8.0 0.00 0.48 0.48 99 1006.4
20260507005058 13 236 6.4 8.0 0.00 0.48 0.48 99 1006.4
20260507004555 13 197 6.4 8.0 0.00 0.48 0.48 99 1006.6
20260507004053 13 223 6.4 8.0 0.00 0.48 0.48 99 1006.3
20260507003548 13 227 8.0 9.7 0.00 0.48 0.48 99 1006.6
20260507003043 13 238 8.0 8.0 0.00 0.48 0.48 99 1006.6
20260507002540 13 211 9.7 11.3 0.00 0.48 0.48 99 1006.5
20260507002036 13 165 6.4 8.0 0.00 0.48 0.48 99 1006.3
20260507001533 13 162 4.8 8.0 0.00 0.48 0.48 99 1006.3
20260507001031 13 231 11.3 11.3 0.00 0.48 0.48 99 1006.3
20260507000527 13 225 6.4 11.3 0.00 0.48 0.48 99 1006.3
20260507000023 13 209 8.0 9.7 0.00 0.48 0.48 99 1006.2
20260506235520 13 202 8.0 9.7 0.00 0.48 0.48 99 1006.1
20260506235015 13 193 9.7 11.3 0.00 0.48 0.48 99 1006.2
20260506234513 13 233 8.0 9.7 0.00 0.48 0.48 99 1006.2
20260506234010 13 206 11.3 14.5 0.00 0.48 0.48 99 1006.4
20260506233507 13 202 11.3 12.9 0.00 0.48 0.48 99 1006.4
20260506233004 13 209 9.7 11.3 0.00 0.48 0.48 99 1006.4
20260506232500 13 191 8.0 11.3 0.00 0.48 0.48 99 1006.4
20260506231955 13 200 12.9 16.1 0.00 0.48 0.48 99 1006.3
20260506231453 13 233 8.0 9.7 0.00 0.48 0.48 99 1006.5
20260506230950 13 233 9.7 11.3 0.00 0.48 0.48 99 1006.4
20260506230445 13 199 14.5 16.1 0.00 0.48 0.48 98 1006.5
20260506225937 13 222 8.0 9.7 0.00 0.48 0.48 98 1006.4
20260506225435 13 220 8.0 11.3 0.00 0.48 0.48 98 1006.6
20260506224931 13 180 8.0 9.7 0.00 0.48 0.48 98 1006.3
20260506224429 13 204 12.9 12.9 0.00 0.48 0.48 99 1006.5
20260506223925 13 218 8.0 11.3 0.00 0.48 0.48 99 1006.4
20260506223420 13 215 11.3 14.5 0.00 0.48 0.48 99 1006.5
20260506222918 14 200 11.3 14.5 0.00 0.48 0.48 99 1006.6
20260506222414 14 217 11.3 17.7 0.00 0.48 0.48 99 1006.6
20260506221912 14 245 3.2 4.8 0.00 0.48 0.48 99 1006.6
20260506221409 14 206 6.4 11.3 0.00 0.48 0.48 99 1006.7
20260506220906 14 233 6.4 9.7 0.00 0.48 0.48 99 1006.7
20260506220402 14 222 6.4 8.0 0.00 0.48 0.48 99 1006.8
20260506215859 14 222 11.3 14.5 0.00 0.48 0.48 99 1006.8
20260506215354 14 209 8.0 11.3 0.00 0.48 0.48 99 1006.8
20260506214850 14 248 8.0 9.7 0.00 0.48 0.48 99 1006.9
20260506214347 14 116 6.4 9.7 0.00 0.48 0.48 99 1007.1
20260506213845 14 229 4.8 8.0 0.00 0.48 0.48 99 1007.0
20260506213342 14 217 6.4 9.7 0.00 0.48 0.48 99 1007.1
20260506212839 14 214 11.3 16.1 0.00 0.48 0.48 99 1007.0
20260506212336 15 125 6.4 8.0 0.00 0.48 0.48 99 1007.1
20260506211830 15 191 8.0 9.7 0.00 0.48 0.48 99 1007.1
20260506211327 15 226 4.8 4.8 0.13 0.48 0.48 99 1007.2
20260506210824 15 200 9.7 11.3 0.18 0.46 0.46 99 1007.2
20260506210321 15 180 9.7 12.9 0.30 0.46 0.46 99 1007.3
20260506205818 15 132 1.6 3.2 0.30 0.43 0.43 99 1007.3
20260506205314 15 142 4.8 4.8 0.36 0.41 0.41 99 1007.4
20260506204810 15 107 3.2 3.2 0.30 0.38 0.38 99 1007.3
20260506204308 15 164 6.4 8.0 0.30 0.36 0.36 99 1007.6
20260506203806 15 108 1.6 1.6 0.13 0.30 0.30 99 1007.5
20260506203303 15 130 3.2 3.2 0.13 0.30 0.30 99 1007.6
20260506202800 15 188 6.4 11.3 0.18 0.28 0.28 99 1007.6
20260506202256 15 110 1.6 1.6 0.30 0.28 0.28 99 1007.5
20260506201747 15 180 3.2 3.2 0.13 0.25 0.25 99 1007.5
20260506201244 15 157 1.6 1.6 0.18 0.23 0.23 99 1007.6
20260506200741 15 138 1.6 1.6 0.18 0.23 0.23 98 1007.7
20260506200238 15 144 1.6 1.6 0.00 0.20 0.20 98 1007.6
20260506195734 15 93 0.0 0.0 0.00 0.20 0.20 98 1007.5
20260506195231 15 89 0.0 1.6 0.00 0.20 0.20 98 1007.3
20260506194728 15 95 0.0 0.0 0.00 0.20 0.20 98 1007.4
20260506194224 15 116 1.6 3.2 0.13 0.20 0.20 98 1007.5
20260506193723 15 155 1.6 3.2 0.13 0.20 0.20 98 1007.8
20260506193219 15 193 3.2 3.2 0.00 0.18 0.18 98 1007.8
20260506192715 15 135 3.2 3.2 0.00 0.18 0.18 98 1007.7
20260506192212 15 209 1.6 3.2 0.00 0.18 0.18 98 1008.0
20260506191709 15 202 1.6 3.2 0.18 0.18 0.18 98 1008.1
20260506191205 15 260 1.6 3.2 0.18 0.18 0.18 98 1008.1
20260506190702 15 215 4.8 8.0 0.13 0.15 0.15 98 1008.1
20260506190153 15 173 4.8 4.8 0.30 0.15 0.15 98 1008.2
20260506185650 15 163 4.8 8.0 0.18 0.13 0.13 98 1008.6
20260506185146 15 223 4.8 8.0 0.13 0.10 0.10 98 1008.5
20260506184644 15 158 3.2 4.8 0.13 0.10 0.10 98 1008.4
20260506184141 15 166 3.2 3.2 0.00 0.08 0.08 98 1008.6
20260506183638 15 168 1.6 3.2 0.00 0.08 0.08 97 1008.5
20260506183134 15 178 3.2 3.2 0.18 0.08 0.08 97 1008.7
20260506182632 15 209 6.4 8.0 0.18 0.08 0.08 96 1008.7
20260506182128 15 200 9.7 11.3 0.18 0.05 0.05 95 1009.0
20260506181626 16 220 8.0 9.7 0.30 0.05 0.05 94 1008.8
20260506181123 16 218 11.3 12.9 0.13 0.03 0.03 91 1008.8
20260506180620 17 237 16.1 17.7 0.00 0.00 0.00 86 1008.7
20260506180116 17 216 9.7 12.9 0.00 0.00 0.00 81 1008.5
20260506175613 18 222 14.5 16.1 0.00 0.00 0.00 77 1008.2
20260506175109 18 238 17.7 27.4 0.00 0.00 0.00 75 1008.1
20260506174608 18 227 14.5 16.1 0.00 0.00 0.00 73 1008.0
20260506174104 19 221 14.5 17.7 0.00 0.00 0.00 73 1007.8
20260506173602 19 228 12.9 16.1 0.00 0.00 0.00 73 1007.9
20260506173058 19 234 17.7 24.1 0.00 0.00 0.00 72 1008.0
20260506172556 19 236 14.5 17.7 0.00 0.00 0.00 71 1007.9
20260506172051 19 227 12.9 14.5 0.00 0.00 0.00 71 1008.0
20260506171549 19 207 11.3 12.9 0.00 0.00 0.00 71 1007.9
20260506171047 19 201 11.3 12.9 0.00 0.00 0.00 71 1007.9
20260506170543 19 207 11.3 12.9 0.00 0.00 0.00 71 1008.0
20260506170035 19 257 11.3 12.9 0.00 0.00 0.00 71 1008.1
20260506165534 19 229 16.1 20.9 0.00 0.00 0.00 72 1008.2
20260506165030 19 153 11.3 14.5 0.00 0.00 0.00 73 1008.4
20260506164527 19 196 8.0 11.3 0.00 0.00 0.00 73 1008.4
20260506164024 19 159 11.3 12.9 0.00 0.00 0.00 73 1008.5
20260506163520 18 218 4.8 8.0 0.00 0.00 0.00 74 1008.7
20260506163016 18 205 9.7 11.3 0.00 0.00 0.00 74 1008.8
20260506162512 18 154 8.0 11.3 0.00 0.00 0.00 74 1008.9
20260506162009 18 126 6.4 9.7 0.00 0.00 0.00 75 1009.0
20260506161507 18 158 8.0 11.3 0.00 0.00 0.00 75 1009.2
20260506161004 18 163 4.8 4.8 0.00 0.00 0.00 76 1009.3
20260506160502 18 153 8.0 9.7 0.00 0.00 0.00 76 1009.4
20260506155958 18 239 8.0 11.3 0.00 0.00 0.00 77 1009.5
20260506155456 18 184 6.4 8.0 0.00 0.00 0.00 77 1009.6
20260506153628 17 262 9.7 12.9 0.00 0.00 0.00 79 1010.1
20260506153125 17 220 14.5 17.7 0.00 0.00 0.00 78 1010.2
20260506152622 17 233 4.8 8.0 0.00 0.00 0.00 79 1010.2
20260506152120 17 197 9.7 11.3 0.00 0.00 0.00 79 1010.1
20260506151619 17 241 11.3 12.9 0.00 0.00 0.00 79 1009.8
20260506151115 17 238 6.4 9.7 0.00 0.00 0.00 79 1009.8
20260506150612 17 160 3.2 4.8 0.00 0.00 0.00 79 1009.9
20260506150109 17 209 9.7 11.3 0.00 0.00 0.00 80 1010.1
20260506145606 17 195 4.8 4.8 0.00 0.00 0.00 79 1010.0
20260506145103 17 208 6.4 8.0 0.00 0.00 0.00 79 1010.0
20260506144559 17 117 3.2 3.2 0.00 0.00 0.00 79 1009.6
20260506144056 17 182 4.8 4.8 0.00 0.00 0.00 80 1009.9
20260506143554 17 223 8.0 9.7 0.00 0.00 0.00 80 1010.0
20260506143052 17 180 4.8 8.0 0.00 0.00 0.00 81 1009.8
20260506142550 17 195 8.0 9.7 0.00 0.00 0.00 82 1009.8
20260506142048 17 160 3.2 3.2 0.00 0.00 0.00 82 1009.7
20260506141546 17 199 4.8 4.8 0.00 0.00 0.00 82 1009.7
20260506141044 16 228 8.0 9.7 0.00 0.00 0.00 83 1009.8
20260506140541 16 160 6.4 8.0 0.00 0.00 0.00 82 1009.9
20260506140038 16 185 4.8 4.8 0.00 0.00 0.00 83 1009.9
20260506135535 16 226 4.8 4.8 0.00 0.00 0.00 83 1010.1
20260506135031 16 197 4.8 4.8 0.00 0.00 0.00 83 1009.9
20260506134528 16 238 6.4 9.7 0.00 0.00 0.00 84 1010.1
20260506134024 16 178 6.4 8.0 0.00 0.00 0.00 84 1010.1
20260506133521 16 178 4.8 4.8 0.00 0.00 0.00 84 1010.2
20260506133018 16 179 6.4 8.0 0.00 0.00 0.00 84 1010.3
20260506132515 16 249 4.8 4.8 0.00 0.00 0.00 84 1010.3
20260506132012 16 220 6.4 8.0 0.00 0.00 0.00 84 1010.1
20260506131509 16 217 4.8 4.8 0.00 0.00 0.00 84 1010.2
20260506131006 16 217 6.4 9.7 0.00 0.00 0.00 85 1010.4
20260506130503 15 233 8.0 9.7 0.00 0.00 0.00 85 1010.3
20260506130000 15 131 4.8 4.8 0.00 0.00 0.00 85 1010.2
20260506125458 15 220 6.4 8.0 0.00 0.00 0.00 85 1010.1
20260506124955 15 238 6.4 8.0 0.00 0.00 0.00 86 1010.4
20260506124453 15 214 8.0 11.3 0.00 0.00 0.00 85 1010.2
20260506123951 15 188 4.8 8.0 0.00 0.00 0.00 85 1010.2
20260506123449 15 162 6.4 9.7 0.00 0.00 0.00 86 1010.3
20260506122946 15 199 8.0 9.7 0.00 0.00 0.00 86 1010.2
20260506122443 15 214 8.0 9.7 0.00 0.00 0.00 86 1010.4
20260506121941 15 227 8.0 11.3 0.00 0.00 0.00 86 1010.5
20260506121438 15 217 14.5 16.1 0.00 0.00 0.00 86 1010.3
20260506120935 15 217 8.0 11.3 0.00 0.00 0.00 86 1010.3
20260506120432 15 191 6.4 8.0 0.00 0.00 0.00 86 1010.3
20260506115929 15 237 6.4 8.0 0.00 0.00 0.00 87 1010.6
20260506115427 15 247 8.0 9.7 0.00 0.00 0.00 87 1010.7
20260506114925 14 221 8.0 11.3 0.00 0.00 0.00 87 1010.7
20260506114423 14 237 6.4 8.0 0.00 0.00 0.00 87 1010.6
20260506113921 15 200 9.7 11.3 0.00 0.00 0.00 87 1010.5
20260506113419 14 177 6.4 9.7 0.00 0.00 0.00 86 1010.5
20260506112915 14 205 8.0 9.7 0.00 0.00 0.00 87 1010.4
20260506112413 14 210 6.4 9.7 0.00 0.00 0.00 88 1010.9
20260506111910 13 236 4.8 4.8 0.00 0.00 0.00 88 1010.9
20260506111408 13 209 8.0 9.7 0.00 0.00 0.00 88 1010.9
20260506110905 13 189 4.8 8.0 0.00 0.00 0.00 88 1010.9
20260506110402 13 227 6.4 8.0 0.00 0.00 0.00 89 1011.1
20260506105859 13 245 8.0 11.3 0.00 0.00 0.00 88 1010.9
20260506105355 13 224 4.8 8.0 0.00 0.00 0.00 88 1010.8
20260506104853 13 243 4.8 8.0 0.00 0.00 0.00 88 1010.9
20260506104350 13 258 6.4 9.7 0.00 0.00 0.00 88 1010.8
20260506103848 13 203 8.0 11.3 0.00 0.00 0.00 88 1010.7
20260506103345 13 223 4.8 4.8 0.00 0.00 0.00 88 1010.8
20260506102842 13 242 4.8 4.8 0.00 0.00 0.00 88 1010.7
20260506102340 13 248 6.4 8.0 0.00 0.00 0.00 87 1010.8
20260506101837 13 239 6.4 8.0 0.00 0.00 0.00 86 1010.6
20260506101333 13 218 8.0 9.7 0.00 0.00 0.00 87 1010.4
20260506100831 13 206 8.0 9.7 0.00 0.00 0.00 87 1010.4
20260506100329 13 220 8.0 9.7 0.00 0.00 0.00 87 1010.6
20260506095827 13 236 6.4 8.0 0.00 0.00 0.00 88 1010.7
20260506095324 13 241 8.0 9.7 0.00 0.00 0.00 87 1010.6
20260506094821 13 239 4.8 8.0 0.00 0.00 0.00 85 1010.3
20260506094320 13 160 3.2 3.2 0.00 0.00 0.00 86 1010.5
20260506093818 13 233 6.4 8.0 0.00 0.00 0.00 87 1010.4
20260506093314 13 229 6.4 11.3 0.00 0.00 0.00 87 1010.5
20260506092812 13 238 8.0 8.0 0.00 0.00 0.00 86 1010.5
20260506092310 13 246 6.4 8.0 0.00 0.00 0.00 85 1010.5
20260506091807 13 221 8.0 11.3 0.00 0.00 0.00 85 1010.5
20260506091304 13 235 4.8 8.0 0.00 0.00 0.00 85 1010.3
20260506090802 13 258 8.0 9.7 0.00 0.00 0.00 86 1010.5
20260506090259 14 235 6.4 8.0 0.00 0.00 0.00 82 1010.4
20260506085755 14 225 4.8 4.8 0.00 0.00 0.00 83 1010.3
20260506085251 14 225 6.4 9.7 0.00 0.00 0.00 84 1010.6
20260506084748 14 226 8.0 9.7 0.00 0.00 0.00 82 1010.6
20260506084244 15 230 8.0 9.7 0.00 0.00 0.00 82 1010.7
20260506083742 15 213 8.0 9.7 0.00 0.00 0.00 81 1010.7
20260506083240 15 223 9.7 11.3 0.00 0.00 0.00 80 1010.5
20260506082737 15 199 11.3 12.9 0.00 0.00 0.00 80 1010.6
20260506082232 15 203 8.0 8.0 0.00 0.00 0.00 80 1010.4
20260506081730 15 229 8.0 11.3 0.00 0.00 0.00 80 1010.3
20260506081227 15 199 6.4 8.0 0.00 0.00 0.00 82 1010.3
20260506080726 15 222 9.7 11.3 0.00 0.00 0.00 81 1010.4
20260506080222 15 242 8.0 9.7 0.00 0.00 0.00 80 1010.4
20260506073206 15 216 8.0 9.7 0.00 0.00 0.00 79 1010.5
20260506072702 15 227 4.8 4.8 0.00 0.00 0.00 79 1010.4
20260506072200 15 259 4.8 4.8 0.00 0.00 0.00 79 1010.7
20260506071657 15 250 4.8 4.8 0.00 0.00 0.00 80 1010.5
20260506071155 15 235 6.4 8.0 0.00 0.00 0.00 80 1010.3
20260506070652 15 203 4.8 4.8 0.00 0.00 0.00 81 1010.2
20260506070149 15 245 4.8 4.8 0.00 0.00 0.00 80 1010.1
20260506062126 15 202 4.8 4.8 0.00 0.00 0.00 77 1010.1
20260506061622 15 226 4.8 4.8 0.00 0.00 0.00 77 1010.2
20260506061120 15 222 4.8 8.0 0.00 0.00 0.00 77 1010.1
20260506060618 15 225 4.8 8.0 0.00 0.00 0.00 76 1010.2
20260506060114 15 196 6.4 8.0 0.00 0.00 0.00 76 1010.1
20260506051046 16 231 6.4 8.0 0.00 0.00 0.00 77 1010.4
20260506050544 16 209 8.0 8.0 0.00 0.00 0.00 77 1010.4
20260506045035 16 217 4.8 4.8 0.00 0.00 0.00 76 1010.4
20260506044533 16 241 8.0 9.7 0.00 0.00 0.00 77 1010.6
20260506044029 16 229 8.0 9.7 0.00 0.00 0.00 78 1010.4
20260506043526 16 232 4.8 8.0 0.00 0.00 0.00 78 1010.3
20260506043025 16 222 6.4 8.0 0.00 0.00 0.00 79 1010.3
20260506042524 16 223 8.0 9.7 0.00 0.00 0.00 79 1010.2
20260506042021 16 187 4.8 8.0 0.00 0.00 0.00 80 1010.3
20260506041520 16 223 8.0 9.7 0.00 0.00 0.00 79 1010.3
20260506041016 16 215 6.4 8.0 0.00 0.00 0.00 81 1010.2